| time (UTC) | temp F | wind direction | speed knots | gust knots | rain 1hr in | rain 24hr in | rain mn in | humidity % | barometer mb |
| 20260504130818 | 65 | 167 | 2.6 | 4.3 | 0.00 | 0.00 | 0.00 | 67 | 1011.4 |
| 20260504130313 | 65 | 194 | 2.6 | 4.3 | 0.00 | 0.00 | 0.00 | 67 | 1011.2 |
| 20260504120318 | 59 | 168 | 0.9 | 2.6 | 0.00 | 0.00 | 0.00 | 72 | 1011.0 |
| 20260504110223 | 58 | 196 | 0.9 | 2.6 | 0.00 | 0.00 | 0.00 | 70 | 1010.4 |
| 20260504100111 | 58 | 204 | 1.7 | 3.5 | 0.00 | 0.00 | 0.00 | 67 | 1010.5 |
| 20260504081952 | 59 | 189 | 2.6 | 4.3 | 0.00 | 0.00 | 0.00 | 63 | 1010.8 |
| 20260504081450 | 59 | 178 | 3.5 | 4.3 | 0.00 | 0.00 | 0.00 | 64 | 1010.8 |
| 20260504080951 | 59 | 209 | 3.5 | 4.3 | 0.00 | 0.00 | 0.00 | 64 | 1010.7 |
| 20260504080450 | 59 | 198 | 2.6 | 4.3 | 0.00 | 0.00 | 0.00 | 63 | 1010.7 |
| 20260504050438 | 57 | 189 | 1.7 | 3.5 | 0.00 | 0.00 | 0.00 | 62 | 1012.3 |
| 20260504045938 | 57 | 198 | 1.7 | 3.5 | 0.00 | 0.00 | 0.00 | 62 | 1012.2 |
| 20260504045438 | 57 | 196 | 1.7 | 2.6 | 0.00 | 0.00 | 0.00 | 62 | 1012.3 |
| 20260504044941 | 57 | 206 | 1.7 | 3.5 | 0.00 | 0.00 | 0.00 | 63 | 1012.4 |
| 20260504044439 | 57 | 150 | 1.7 | 3.5 | 0.00 | 0.00 | 0.00 | 62 | 1012.4 |
| 20260504043941 | 56 | 210 | 1.7 | 3.5 | 0.00 | 0.00 | 0.00 | 63 | 1012.5 |
| 20260504043438 | 56 | 198 | 1.7 | 2.6 | 0.00 | 0.00 | 0.00 | 63 | 1012.5 |
| 20260504042941 | 56 | 181 | 1.7 | 2.6 | 0.00 | 0.00 | 0.00 | 63 | 1012.5 |
| 20260504042439 | 56 | 190 | 1.7 | 2.6 | 0.00 | 0.00 | 0.00 | 63 | 1012.5 |
| 20260504041941 | 56 | 186 | 1.7 | 2.6 | 0.00 | 0.00 | 0.00 | 63 | 1012.6 |
| 20260504041438 | 56 | 190 | 1.7 | 2.6 | 0.00 | 0.00 | 0.00 | 63 | 1012.6 |
| 20260504040941 | 56 | 188 | 0.9 | 2.6 | 0.00 | 0.00 | 0.00 | 63 | 1012.6 |
| 20260504040439 | 56 | 180 | 0.0 | 1.7 | 0.00 | 0.00 | 0.00 | 63 | 1012.7 |
| 20260504040210 | 56 | 194 | 0.0 | 0.9 | 0.00 | 0.00 | 0.00 | 63 | 1012.7 |
| 20260504035438 | 56 | 194 | 0.0 | 1.7 | 0.00 | 0.00 | 0.00 | 62 | 1013.0 |
| 20260504034939 | 56 | 194 | 0.9 | 1.7 | 0.00 | 0.00 | 0.00 | 62 | 1012.9 |
| 20260504034435 | 56 | 185 | 0.9 | 1.7 | 0.00 | 0.00 | 0.00 | 62 | 1012.9 |
| 20260504033932 | 56 | 162 | 0.9 | 2.6 | 0.00 | 0.00 | 0.00 | 62 | 1012.8 |
| 20260504033423 | 56 | 192 | 1.7 | 2.6 | 0.00 | 0.00 | 0.00 | 62 | 1012.9 |
| 20260504032918 | 56 | 191 | 1.7 | 2.6 | 0.00 | 0.00 | 0.00 | 62 | 1013.0 |
| 20260504032412 | 56 | 194 | 0.9 | 2.6 | 0.00 | 0.00 | 0.00 | 62 | 1013.1 |
| 20260504031906 | 56 | 188 | 0.9 | 1.7 | 0.00 | 0.00 | 0.00 | 62 | 1013.0 |
| 20260504031400 | 56 | 171 | 0.9 | 1.7 | 0.00 | 0.00 | 0.00 | 61 | 1013.2 |
| 20260504031123 | 56 | 183 | 0.0 | 1.7 | 0.00 | 0.00 | 0.00 | 62 | 1013.2 |
| 20260504030348 | 56 | 183 | 0.0 | 0.9 | 0.00 | 0.00 | 0.00 | 62 | 1013.2 |
| 20260504030329 | 56 | 183 | 0.9 | 1.7 | 0.00 | 0.00 | 0.00 | 61 | 1013.1 |
| 20260504025334 | 56 | 183 | 0.9 | 1.7 | 0.00 | 0.00 | 0.00 | 61 | 1013.1 |
| 20260504024827 | 56 | 183 | 0.9 | 2.6 | 0.00 | 0.00 | 0.00 | 60 | 1013.0 |
| 20260504024321 | 56 | 183 | 0.9 | 2.6 | 0.00 | 0.00 | 0.00 | 60 | 1012.9 |
| 20260504023815 | 57 | 164 | 0.0 | 1.7 | 0.00 | 0.00 | 0.00 | 60 | 1012.9 |
| 20260504023309 | 57 | 192 | 0.0 | 0.0 | 0.00 | 0.00 | 0.00 | 58 | 1013.1 |
| 20260504022809 | 57 | 192 | 0.0 | 0.0 | 0.00 | 0.00 | 0.00 | 57 | 1013.1 |
| 20260504022309 | 58 | 192 | 0.0 | 0.0 | 0.00 | 0.00 | 0.00 | 56 | 1013.0 |
| 20260504021806 | 58 | 192 | 0.0 | 0.0 | 0.00 | 0.00 | 0.00 | 57 | 1013.1 |
| 20260504021304 | 58 | 192 | 0.0 | 0.0 | 0.00 | 0.00 | 0.00 | 56 | 1013.0 |
| 20260504020804 | 59 | 192 | 0.0 | 0.0 | 0.00 | 0.00 | 0.00 | 56 | 1013.0 |
| 20260504020304 | 59 | 192 | 0.0 | 0.0 | 0.00 | 0.00 | 0.00 | 57 | 1013.0 |
| 20260504020023 | 59 | 192 | 0.0 | 0.0 | 0.00 | 0.00 | 0.00 | 55 | 1013.1 |
| 20260504015300 | 60 | 192 | 0.0 | 0.0 | 0.00 | 0.00 | 0.00 | 54 | 1013.0 |
| 20260504014800 | 60 | 192 | 0.0 | 0.0 | 0.00 | 0.00 | 0.00 | 52 | 1013.0 |
| 20260504014259 | 60 | 192 | 0.0 | 0.0 | 0.00 | 0.00 | 0.00 | 52 | 1013.0 |
| 20260504013756 | 60 | 192 | 0.0 | 0.0 | 0.00 | 0.00 | 0.00 | 53 | 1012.8 |
| 20260504013256 | 61 | 192 | 0.0 | 0.0 | 0.00 | 0.00 | 0.00 | 52 | 1012.8 |
| 20260504013015 | 61 | 192 | 0.0 | 0.0 | 0.00 | 0.00 | 0.00 | 52 | 1012.8 |
| 20260504012254 | 61 | 192 | 0.0 | 0.0 | 0.00 | 0.00 | 0.00 | 52 | 1012.8 |
| 20260504011752 | 62 | 192 | 0.0 | 0.0 | 0.00 | 0.00 | 0.00 | 51 | 1012.7 |
| 20260504011250 | 62 | 192 | 0.0 | 0.0 | 0.00 | 0.00 | 0.00 | 51 | 1012.7 |
| 20260504011028 | 62 | 192 | 0.0 | 0.0 | 0.00 | 0.00 | 0.00 | 50 | 1012.7 |
| 20260504010250 | 63 | 196 | 0.0 | 1.7 | 0.00 | 0.00 | 0.00 | 50 | 1012.7 |
| 20260504005748 | 63 | 200 | 0.9 | 2.6 | 0.00 | 0.00 | 0.00 | 49 | 1012.8 |
| 20260504005247 | 64 | 195 | 0.0 | 2.6 | 0.00 | 0.00 | 0.00 | 49 | 1012.7 |
| 20260504005002 | 64 | 195 | 0.0 | 0.0 | 0.00 | 0.00 | 0.00 | 48 | 1012.6 |
| 20260504004233 | 64 | 195 | 0.9 | 1.7 | 0.00 | 0.00 | 0.00 | 47 | 1012.7 |
| 20260504003727 | 65 | 195 | 0.9 | 2.6 | 0.00 | 0.00 | 0.00 | 47 | 1012.7 |
| 20260504003221 | 65 | 202 | 0.9 | 2.6 | 0.00 | 0.00 | 0.00 | 46 | 1012.7 |
| 20260504002715 | 65 | 198 | 1.7 | 2.6 | 0.00 | 0.00 | 0.00 | 45 | 1012.8 |
| 20260504002430 | 65 | 192 | 1.7 | 2.6 | 0.00 | 0.00 | 0.00 | 46 | 1012.8 |
| 20260504001921 | 66 | 190 | 1.7 | 2.6 | 0.00 | 0.00 | 0.00 | 45 | 1012.8 |
| 20260504001158 | 66 | 202 | 1.7 | 3.5 | 0.00 | 0.00 | 0.00 | 43 | 1013.0 |
| 20260504000652 | 66 | 188 | 2.6 | 4.3 | 0.00 | 0.00 | 0.00 | 44 | 1013.0 |
| 20260504000145 | 67 | 200 | 2.6 | 4.3 | 0.00 | 0.00 | 0.00 | 43 | 1013.0 |
| 20260503235639 | 67 | 194 | 2.6 | 3.5 | 0.00 | 0.00 | 0.00 | 43 | 1013.1 |
| 20260503235136 | 67 | 201 | 2.6 | 5.2 | 0.00 | 0.00 | 0.00 | 42 | 1013.1 |
| 20260503234627 | 67 | 179 | 2.6 | 5.2 | 0.00 | 0.00 | 0.00 | 42 | 1013.1 |
| 20260503234121 | 68 | 201 | 2.6 | 5.2 | 0.00 | 0.00 | 0.00 | 41 | 1013.2 |
| 20260503233841 | 68 | 182 | 3.5 | 7.0 | 0.00 | 0.00 | 0.00 | 41 | 1013.3 |
| 20260503233109 | 69 | 173 | 3.5 | 7.0 | 0.00 | 0.00 | 0.00 | 40 | 1013.3 |
| 20260503232603 | 69 | 195 | 3.5 | 6.1 | 0.00 | 0.00 | 0.00 | 40 | 1013.4 |
| 20260503232058 | 69 | 186 | 3.5 | 6.1 | 0.00 | 0.00 | 0.00 | 39 | 1013.5 |
| 20260503231552 | 70 | 192 | 3.5 | 5.2 | 0.00 | 0.00 | 0.00 | 40 | 1013.5 |
| 20260503231046 | 71 | 221 | 3.5 | 6.1 | 0.00 | 0.00 | 0.00 | 40 | 1013.6 |
| 20260503230553 | 71 | 213 | 3.5 | 7.0 | 0.00 | 0.00 | 0.00 | 37 | 1013.6 |
| 20260503230034 | 71 | 220 | 2.6 | 7.0 | 0.00 | 0.00 | 0.00 | 39 | 1013.6 |
| 20260503225753 | 72 | 211 | 2.6 | 6.1 | 0.00 | 0.00 | 0.00 | 37 | 1013.7 |
| 20260503225022 | 72 | 157 | 2.6 | 5.2 | 0.00 | 0.00 | 0.00 | 39 | 1013.7 |
| 20260503224518 | 72 | 183 | 2.6 | 5.2 | 0.00 | 0.00 | 0.00 | 39 | 1013.8 |
| 20260503224229 | 72 | 169 | 1.7 | 3.5 | 0.00 | 0.00 | 0.00 | 39 | 1013.8 |
| 20260503223516 | 72 | 201 | 2.6 | 6.1 | 0.00 | 0.00 | 0.00 | 41 | 1013.7 |
| 20260503223223 | 72 | 170 | 2.6 | 6.1 | 0.00 | 0.00 | 0.00 | 38 | 1013.8 |
| 20260503222452 | 72 | 200 | 3.5 | 6.1 | 0.00 | 0.00 | 0.00 | 39 | 1013.8 |
| 20260503221946 | 72 | 177 | 4.3 | 6.1 | 0.00 | 0.00 | 0.00 | 40 | 1013.9 |
| 20260503221705 | 72 | 191 | 3.5 | 6.1 | 0.00 | 0.00 | 0.00 | 38 | 1013.8 |
| 20260503220934 | 73 | 196 | 2.6 | 7.0 | 0.00 | 0.00 | 0.00 | 39 | 1013.9 |
| 20260503220427 | 73 | 186 | 2.6 | 7.0 | 0.00 | 0.00 | 0.00 | 37 | 1013.8 |
| 20260503215921 | 73 | 171 | 2.6 | 5.2 | 0.00 | 0.00 | 0.00 | 39 | 1013.9 |
| 20260503215416 | 73 | 194 | 2.6 | 5.2 | 0.00 | 0.00 | 0.00 | 39 | 1014.2 |
| 20260503214909 | 73 | 200 | 3.5 | 5.2 | 0.00 | 0.00 | 0.00 | 37 | 1014.2 |
| 20260503214404 | 73 | 178 | 3.5 | 7.0 | 0.00 | 0.00 | 0.00 | 40 | 1014.3 |
| 20260503213900 | 73 | 186 | 3.5 | 7.0 | 0.00 | 0.00 | 0.00 | 37 | 1014.5 |
| 20260503213351 | 73 | 201 | 3.5 | 6.1 | 0.00 | 0.00 | 0.00 | 39 | 1014.4 |
| 20260503212846 | 73 | 176 | 3.5 | 7.8 | 0.00 | 0.00 | 0.00 | 41 | 1014.7 |
| 20260503212339 | 73 | 200 | 3.5 | 7.8 | 0.00 | 0.00 | 0.00 | 38 | 1014.7 |
| 20260503211835 | 73 | 208 | 3.5 | 6.1 | 0.00 | 0.00 | 0.00 | 41 | 1014.6 |
| 20260503211328 | 73 | 232 | 3.5 | 6.1 | 0.00 | 0.00 | 0.00 | 38 | 1014.8 |
| 20260503211039 | 73 | 203 | 3.5 | 8.7 | 0.00 | 0.00 | 0.00 | 39 | 1014.9 |
| 20260503210537 | 73 | 157 | 3.5 | 8.7 | 0.00 | 0.00 | 0.00 | 41 | 1014.9 |
| 20260503210011 | 74 | 162 | 2.6 | 6.1 | 0.00 | 0.00 | 0.00 | 38 | 1015.3 |
| 20260503205901 | 73 | 211 | 3.5 | 6.1 | 0.00 | 0.00 | 0.00 | 35 | 1015.2 |
| 20260503204758 | 74 | 178 | 3.5 | 6.1 | 0.00 | 0.00 | 0.00 | 37 | 1015.4 |
| 20260503204251 | 74 | 194 | 3.5 | 5.2 | 0.00 | 0.00 | 0.00 | 38 | 1015.6 |
| 20260503203745 | 74 | 167 | 2.6 | 6.1 | 0.00 | 0.00 | 0.00 | 37 | 1015.6 |
| 20260503203246 | 74 | 295 | 2.6 | 6.1 | 0.00 | 0.00 | 0.00 | 39 | 1015.6 |
| 20260503202744 | 73 | 202 | 2.6 | 5.2 | 0.00 | 0.00 | 0.00 | 38 | 1015.9 |
| 20260503202241 | 73 | 186 | 2.6 | 5.2 | 0.00 | 0.00 | 0.00 | 41 | 1016.0 |
| 20260503201741 | 73 | 206 | 3.5 | 5.2 | 0.00 | 0.00 | 0.00 | 39 | 1016.0 |
| 20260503201241 | 73 | 182 | 3.5 | 5.2 | 0.00 | 0.00 | 0.00 | 43 | 1016.2 |
| 20260503200740 | 73 | 198 | 2.6 | 5.2 | 0.00 | 0.00 | 0.00 | 37 | 1016.1 |
| 20260503200240 | 72 | 219 | 2.6 | 5.2 | 0.00 | 0.00 | 0.00 | 38 | 1016.4 |
| 20260503195740 | 72 | 232 | 2.6 | 7.0 | 0.00 | 0.00 | 0.00 | 36 | 1016.4 |
| 20260503195238 | 73 | 222 | 4.3 | 9.6 | 0.00 | 0.00 | 0.00 | 37 | 1016.6 |
| 20260503194738 | 73 | 197 | 3.5 | 9.6 | 0.00 | 0.00 | 0.00 | 37 | 1016.7 |
| 20260503194238 | 73 | 201 | 2.6 | 6.1 | 0.00 | 0.00 | 0.00 | 39 | 1016.8 |
| 20260503194005 | 73 | 217 | 2.6 | 6.1 | 0.00 | 0.00 | 0.00 | 41 | 1016.9 |
| 20260503193236 | 73 | 203 | 3.5 | 6.1 | 0.00 | 0.00 | 0.00 | 36 | 1017.0 |
| 20260503192959 | 73 | 194 | 2.6 | 7.0 | 0.00 | 0.00 | 0.00 | 43 | 1017.0 |
| 20260503192234 | 73 | 324 | 1.7 | 7.0 | 0.00 | 0.00 | 0.00 | 36 | 1017.1 |
| 20260503191734 | 72 | 200 | 2.6 | 6.1 | 0.00 | 0.00 | 0.00 | 36 | 1017.3 |
| 20260503191233 | 72 | 157 | 1.7 | 4.3 | 0.00 | 0.00 | 0.00 | 42 | 1017.4 |
| 20260503190733 | 72 | 201 | 1.7 | 4.3 | 0.00 | 0.00 | 0.00 | 39 | 1017.4 |
| 20260503190451 | 72 | 268 | 2.6 | 7.0 | 0.00 | 0.00 | 0.00 | 43 | 1017.6 |
| 20260503185732 | 72 | 189 | 3.5 | 7.0 | 0.00 | 0.00 | 0.00 | 41 | 1017.8 |
| 20260503185231 | 72 | 190 | 3.5 | 7.0 | 0.00 | 0.00 | 0.00 | 38 | 1017.8 |
| 20260503184732 | 72 | 223 | 2.6 | 7.0 | 0.00 | 0.00 | 0.00 | 38 | 1018.0 |
| 20260503184231 | 72 | 194 | 2.6 | 6.1 | 0.00 | 0.00 | 0.00 | 39 | 1017.9 |
| 20260503183731 | 71 | 161 | 2.6 | 6.1 | 0.00 | 0.00 | 0.00 | 42 | 1018.0 |
| 20260503183232 | 71 | 235 | 2.6 | 6.1 | 0.00 | 0.00 | 0.00 | 42 | 1018.1 |
| 20260503183007 | 71 | 204 | 3.5 | 7.0 | 0.00 | 0.00 | 0.00 | 41 | 1018.1 |
| 20260503182232 | 71 | 173 | 2.6 | 7.0 | 0.00 | 0.00 | 0.00 | 43 | 1018.2 |
| 20260503181732 | 71 | 163 | 2.6 | 7.0 | 0.00 | 0.00 | 0.00 | 38 | 1018.4 |
| 20260503181232 | 71 | 186 | 2.6 | 5.2 | 0.00 | 0.00 | 0.00 | 41 | 1018.5 |
| 20260503180745 | 71 | 293 | 2.6 | 5.2 | 0.00 | 0.00 | 0.00 | 37 | 1018.4 |
| 20260503180231 | 71 | 190 | 2.6 | 4.3 | 0.00 | 0.00 | 0.00 | 45 | 1018.5 |
| 20260503175732 | 70 | 205 | 2.6 | 5.2 | 0.00 | 0.00 | 0.00 | 43 | 1018.5 |
| 20260503175232 | 70 | 252 | 3.5 | 6.1 | 0.00 | 0.00 | 0.00 | 41 | 1018.6 |
| 20260503175002 | 70 | 200 | 3.5 | 6.1 | 0.00 | 0.00 | 0.00 | 43 | 1018.7 |
| 20260503174232 | 70 | 205 | 2.6 | 6.1 | 0.00 | 0.00 | 0.00 | 41 | 1018.7 |
| 20260503173731 | 70 | 167 | 2.6 | 7.0 | 0.00 | 0.00 | 0.00 | 48 | 1018.8 |
| 20260503173231 | 70 | 181 | 3.5 | 7.0 | 0.00 | 0.00 | 0.00 | 46 | 1018.8 |
| 20260503172732 | 70 | 166 | 3.5 | 7.0 | 0.00 | 0.00 | 0.00 | 43 | 1018.8 |
| 20260503172231 | 70 | 198 | 2.6 | 6.1 | 0.00 | 0.00 | 0.00 | 43 | 1019.1 |
| 20260503171731 | 70 | 166 | 2.6 | 5.2 | 0.00 | 0.00 | 0.00 | 44 | 1019.2 |
| 20260503171225 | 70 | 192 | 2.6 | 5.2 | 0.00 | 0.00 | 0.00 | 44 | 1019.3 |
| 20260503170724 | 69 | 148 | 2.6 | 6.1 | 0.00 | 0.00 | 0.00 | 44 | 1019.5 |
| 20260503170223 | 69 | 180 | 2.6 | 6.1 | 0.00 | 0.00 | 0.00 | 44 | 1019.6 |
| 20260503150939 | 63 | 200 | 2.6 | 4.3 | 0.00 | 0.00 | 0.00 | 55 | 1020.4 |
| 20260503150223 | 62 | 187 | 2.6 | 4.3 | 0.00 | 0.00 | 0.00 | 56 | 1020.5 |